TimeEDT,TemperatureF,Dew PointF,Humidity,Sea Level PressureIn,VisibilityMPH,Wind Direction,Wind SpeedMPH,Gust SpeedMPH,PrecipitationIn,Events,Conditions,WindDirDegrees,DateUTC
12:52 AM,55.9,52.0,87,30.14,10.0,SSW,4.6,-,N/A,,Clear,200,2012-10-04 04:52:00
1:52 AM,55.0,51.1,86,30.15,10.0,South,6.9,-,N/A,,Clear,190,2012-10-04 05:52:00
2:52 AM,55.9,51.1,84,30.15,10.0,South,6.9,-,N/A,,Clear,190,2012-10-04 06:52:00
3:52 AM,53.1,50.0,89,30.15,10.0,South,5.8,-,N/A,,Clear,180,2012-10-04 07:52:00
4:52 AM,55.0,51.1,86,30.15,10.0,SSW,8.1,-,N/A,,Clear,200,2012-10-04 08:52:00
5:52 AM,55.0,51.1,86,30.16,10.0,SSW,8.1,-,N/A,,Clear,200,2012-10-04 09:52:00
6:52 AM,55.0,51.1,86,30.18,10.0,South,8.1,-,N/A,,Partly Cloudy,190,2012-10-04 10:52:00
7:52 AM,55.0,51.1,86,30.19,10.0,South,9.2,-,N/A,,Scattered Clouds,190,2012-10-04 11:52:00
8:52 AM,57.0,52.0,83,30.20,10.0,SSW,8.1,-,0.00,,Mostly Cloudy,200,2012-10-04 12:52:00
9:52 AM,60.1,54.0,80,30.20,10.0,SSW,9.2,-,N/A,,Scattered Clouds,200,2012-10-04 13:52:00
11:52 AM,69.1,57.0,65,30.21,10.0,SSW,6.9,-,N/A,,Clear,210,2012-10-04 15:52:00
12:52 PM,73.0,55.9,55,30.20,10.0,WSW,11.5,17.3,N/A,,Partly Cloudy,240,2012-10-04 16:52:00
1:52 PM,73.9,55.0,52,30.19,10.0,SSW,13.8,23.0,N/A,,Partly Cloudy,210,2012-10-04 17:52:00
2:52 PM,75.0,53.1,46,30.16,10.0,SW,10.4,21.9,N/A,,Partly Cloudy,230,2012-10-04 18:52:00
3:52 PM,75.9,54.0,46,30.14,10.0,SSW,12.7,17.3,N/A,,Partly Cloudy,200,2012-10-04 19:52:00
4:52 PM,75.0,54.0,48,30.14,10.0,SW,9.2,-,N/A,,Partly Cloudy,220,2012-10-04 20:52:00
5:52 PM,73.9,53.1,48,30.14,10.0,SSW,8.1,-,N/A,,Partly Cloudy,200,2012-10-04 21:52:00
6:52 PM,70.0,54.0,57,30.15,10.0,SSW,5.8,-,N/A,,Partly Cloudy,200,2012-10-04 22:52:00
7:52 PM,69.1,54.0,58,30.14,10.0,SSW,5.8,-,N/A,,Partly Cloudy,200,2012-10-04 23:52:00
8:52 PM,64.4,53.6,68,30.17,10.0,SSW,5.8,-,N/A,,Clear,200,2012-10-05 00:52:00
9:52 PM,62.1,54.0,75,30.15,10.0,South,5.8,-,N/A,,Clear,190,2012-10-05 01:52:00
10:52 PM,62.1,54.0,75,30.15,10.0,South,5.8,-,N/A,,Clear,190,2012-10-05 02:52:00
11:52 PM,62.1,54.0,75,30.14,10.0,South,6.9,-,N/A,,Clear,190,2012-10-05 03:52:00